Dewpoint
62 62 62 62 62 62 62 62 62 62 62 62 62 63 63 62 60 27 24 38 43 65 63 46 43 42 39 39 43 45 36 33 36 36 36 31 30 24 22 25 25 24 24 26 30
62 62 62 62 62 62 62 62 62 62 63 63 62 62 62 61 23 22 51 58 62 64 44 41 38 39 35 33 34 39 38 35 37 37 35 32 30 26 24 24 24 23 23 26 29
62 62 62 62 62 62 62 62 62 62 62 63 62 61 62 55 24 22 62 61 62 56 44 42 39 38 36 34 31 33 34 34 31 32 32 30 28 26 27 29 28 26 25 26 28
62 62 62 61 61 61 61 62 62 62 62 62 61 61 60 36 22 25 61 61 63 44 38 37 37 35 34 30 28 26 31 30 31 32 29 29 27 25 27 30 26 27 26 26 26
62 62 61 61 61 61 61 61 61 62 62 62 61 61 40 25 23 27 56 55 35 33 35 35 33 34 30 29 26 24 27 27 27 29 28 28 27 27 27 27 24 24 26 26 25
61 61 61 60 60 60 61 61 61 61 62 61 61 59 28 24 24 25 31 33 34 33 33 33 32 32 29 26 25 25 24 24 25 26 26 26 26 25 24 26 23 24 25 25 25
60 60 60 60 60 60 60 61 61 61 61 60 60 36 24 23 23 25 29 30 33 34 32 31 30 28 27 25 25 23 22 23 24 24 23 24 23 24 23 23 23 23 23 25 25
60 60 60 60 60 60 60 60 60 60 59 58 56 24 22 23 24 25 27 28 29 31 33 31 30 29 26 26 24 23 22 16 25 23 22 22 17 20 23 21 22 22 21 25 24
60 60 59 59 59 59 59 60 59 59 59 57 31 23 21 37 21 22 28 26 27 29 30 28 29 28 28 24 21 19 10 14 15 23 22 22 20 22 21 21 22 21 21 22 23
58 59 59 59 59 59 58 59 57 52 44 32 22 21 20 18 21 22 24 26 26 28 29 28 28 26 25 20 13 15 12 11 14 18 22 21 21 20 21 21 22 20 20 21 21
56 56 58 58 58 58 51 36 28 26 28 24 22 21 19 21 21 20 21 24 25 25 23 27 20 21 20 21 18 16 14 12 13 18 20 20 19 19 19 23 23 21 19 20 20
55 56 57 57 57 57 50 33 32 35 26 26 20 20 21 20 18 19 22 21 23 21 23 22 19 20 18 19 17 15 13 12 14 16 16 15 15 17 18 19 23 21 20 20 20
54 55 56 57 57 50 40 40 42 39 26 25 21 18 19 20 19 19 21 21 20 20 20 17 20 18 17 17 14 14 13 11 12 14 16 17 16 12 16 20 21 21 21 20 21
54 55 56 56 49 43 39 42 42 36 21 24 23 21 20 23 21 22 24 22 20 17 20 19 18 18 18 15 15 16 14 15 14 15 9 16 4 12 12 13 17 19 20 20 22
54 54 55 55 43 39 42 46 42 30 11 23 24 24 22 21 22 22 24 21 19 19 19 17 17 17 17 16 15 16 18 17 19 17 17 17 15 8 14 12 14 17 20 21 22
52 53 54 53 48 46 48 42 35 19 11 22 22 21 20 22 22 22 22 23 23 21 20 19 16 16 16 14 14 17 17 20 25 23 16 16 15 9 10 15 16 16 18 20 20
52 52 53 53 41 52 42 35 20 14 21 20 21 21 20 20 20 19 18 19 18 17 16 19 18 13 14 15 19 18 17 14 11 15 11 18 15 11 15 19 19 18 17 19 20
51 52 53 51 53 45 36 26 17 15 19 22 21 20 18 20 20 20 20 17 19 16 18 15 13 17 12 14 16 16 17 12 11 6 8 16 13 13 15 15 18 20 21 21 21
51 50 49 51 52 47 31 19 13 16 22 21 20 17 18 19 19 20 19 19 19 18 15 15 15 12 10 10 14 16 16 19 14 15 12 12 10 13 16 13 19 21 21 22 22
49 47 48 48 51 37 28 26 21 21 24 22 18 18 16 19 19 20 20 21 21 20 19 18 14 15 12 12 15 16 17 16 17 19 11 7 8 9 14 10 15 17 20 23 24
50 42 45 43 38 34 25 24 25 26 25 21 20 19 17 20 19 18 18 21 21 22 20 19 17 17 16 15 14 15 14 15 18 17 15 10 11 10 12 13 14 16 20 23 23
47 36 43 40 33 32 28 28 33 28 29 25 24 22 20 22 21 21 20 21 23 23 19 19 20 16 15 15 14 12 12 14 20 19 19 21 17 15 11 14 19 18 20 22 23
40 40 42 38 28 29 30 29 29 28 27 26 24 25 23 23 22 23 23 27 27 25 22 21 19 17 16 17 17 15 14 14 19 21 20 22 18 12 14 19 19 18 19 22 20
41 38 40 38 38 28 27 26 25 31 27 26 25 26 24 23 24 25 23 27 27 24 39 30 22 18 16 16 21 19 18 15 15 21 21 19 16 17 20 20 19 20 21 21 23
42 38 41 37 35 32 29 26 25 26 29 27 27 26 24 25 24 23 26 26 25 36 25 24 20 18 17 18 19 18 19 18 19 17 18 18 18 20 21 22 20 21 21 21 22
43 39 40 41 39 35 34 30 27 25 28 28 27 27 26 24 23 24 26 26 25 28 23 24 22 20 19 18 18 19 20 20 19 19 18 18 18 21 20 20 20 21 22 23 23
48 45 40 41 38 35 33 31 31 28 29 27 28 28 27 26 26 26 27 27 28 26 24 24 25 23 20 22 21 20 22 21 21 20 19 19 22 22 23 24 24 25 26 26 26
Lifted_Index
6 6 6 6 6 6 6 6 6 6 6 6 6 7 7 8 9 10 10 9 8 5 4 5 5 6 7 7 6 5 4 4 4 5 6 6 7 8 9 10 11 11 11 12 12
7 7 7 7 7 7 6 6 6 6 6 6 7 7 7 8 9 9 9 9 7 5 5 5 6 6 7 7 7 6 5 5 5 6 7 7 8 9 10 10 11 11 12 12 12
7 7 7 7 7 7 7 7 6 6 6 7 7 8 8 8 9 9 9 8 7 6 6 6 6 6 7 8 8 7 6 7 7 8 8 9 9 10 10 11 11 12 12 13 13
7 7 7 7 7 7 7 7 7 7 7 7 8 8 9 9 9 10 10 9 8 7 7 7 6 6 7 7 8 7 8 8 9 9 9 10 10 10 10 11 12 13 13 13 14
8 8 8 8 8 8 8 7 7 7 7 8 8 9 9 9 10 10 11 10 9 8 7 7 7 7 7 8 8 8 8 9 9 10 10 10 10 10 10 11 12 13 13 14 14
8 8 8 9 9 8 8 8 8 8 8 8 9 9 10 10 11 11 11 10 9 8 8 8 8 8 8 8 8 8 8 8 9 9 9 9 9 9 10 11 12 12 13 14 14
10 9 9 9 9 9 9 8 9 9 9 9 10 10 10 11 11 12 11 10 10 9 9 9 9 9 9 9 8 8 7 7 8 9 9 8 8 8 10 10 11 11 12 13 13
10 10 10 10 10 10 9 9 9 10 10 11 11 11 11 11 12 12 11 11 11 10 10 10 10 10 10 9 8 7 6 5 6 8 8 7 6 7 9 10 10 10 11 12 12
11 11 11 11 11 11 10 10 10 11 11 11 12 11 11 12 12 12 12 12 11 11 11 11 11 10 9 7 6 5 4 4 5 7 7 6 5 7 9 9 9 9 10 11 11
11 11 11 11 12 12 12 12 12 12 12 12 12 11 11 12 12 13 13 12 12 11 11 10 9 8 7 6 5 4 4 3 4 6 6 5 5 6 7 8 8 8 9 10 10
12 12 12 12 12 13 13 13 13 12 12 12 12 12 12 12 13 13 13 12 12 11 10 9 8 7 7 6 6 5 4 4 5 5 5 4 4 5 5 6 6 7 8 9 10
13 12 12 12 12 13 13 13 13 13 13 12 12 12 13 13 13 13 13 12 11 10 9 8 7 7 8 7 6 6 5 4 5 5 5 4 3 4 4 5 5 6 7 8 9
15 14 12 12 13 13 13 13 13 13 12 12 13 13 13 13 13 13 13 12 11 9 9 8 8 9 8 7 7 6 5 5 5 5 4 3 3 3 4 4 5 6 7 8 9
16 15 13 13 13 13 13 13 13 12 10 11 12 13 14 13 13 13 13 13 11 10 9 9 9 9 8 8 7 7 7 6 5 4 4 3 3 3 3 4 5 6 6 7 8
16 15 14 13 14 14 13 13 13 10 7 9 12 13 13 13 13 13 13 13 11 10 10 9 9 9 9 9 8 8 8 7 6 4 4 3 3 3 4 4 5 6 7 7 8
16 15 13 13 14 14 14 13 11 8 6 8 11 12 12 12 12 12 12 12 11 9 9 9 10 10 10 9 9 9 8 6 5 3 3 3 3 3 4 5 6 6 7 8 8
15 14 13 13 14 14 14 12 9 6 7 8 9 10 10 11 11 11 11 10 9 8 7 8 8 10 10 10 9 9 7 4 2 2 2 3 3 4 5 6 7 7 8 8 9
13 13 13 13 13 13 13 10 7 6 7 8 9 9 9 9 10 10 9 9 9 8 7 6 7 9 10 10 9 8 6 4 2 1 2 3 3 4 6 7 7 8 9 9 9
13 12 12 13 13 13 12 8 6 7 8 8 8 7 7 8 9 9 8 8 9 9 8 6 6 9 11 11 10 8 7 6 4 2 2 2 3 5 6 7 7 8 9 9 10
13 12 12 12 13 12 10 8 8 9 9 8 7 7 7 7 7 7 8 8 9 10 9 8 7 8 10 10 10 9 8 7 5 3 2 2 3 5 6 7 8 8 9 10 10
13 12 12 12 13 12 9 8 9 10 10 9 8 7 7 7 7 7 7 8 10 10 10 9 7 7 8 9 9 9 8 7 6 4 2 2 3 5 7 7 8 9 9 10 10
13 12 12 12 12 10 8 8 10 10 10 10 9 8 8 7 7 7 7 9 10 10 10 9 7 5 6 8 9 9 8 8 6 5 4 3 4 6 7 8 9 9 10 10 10
13 12 12 12 11 9 8 8 9 10 10 10 9 9 8 7 7 7 8 10 11 11 10 9 7 5 5 7 8 8 8 8 7 5 4 3 4 6 8 9 9 10 10 10 10
13 12 12 12 11 10 9 8 9 10 10 10 10 9 8 7 7 7 8 10 11 11 11 10 7 5 5 7 7 6 7 7 7 5 4 3 4 5 7 8 9 10 10 10 10
12 11 11 11 10 10 9 9 8 9 10 10 9 9 8 7 7 7 8 9 10 11 11 9 7 6 6 7 7 6 5 6 5 5 4 4 4 6 7 8 9 9 10 10 10
11 11 11 9 9 9 9 8 8 9 10 9 9 9 8 8 8 9 9 10 10 10 10 9 7 6 6 7 7 5 5 5 5 5 5 4 5 6 8 8 9 9 9 9 9
11 12 11 9 8 8 7 7 7 9 10 9 9 9 9 9 10 10 10 10 10 9 9 8 7 6 5 6 6 5 4 5 5 5 5 4 5 7 8 8 9 9 9 9 9